Location: Houston
(29.7630°N, 95.3630°W)
Time: 19:58:13
(UTC-05:00)

ISS - All Passes

Search period start: 04 May 2016 00:00
Search period end: 14 May 2016 00:00
Orbit: 402 x 405 km, 51.6° (Epoch: 04 May)

Date Brightness Start Highest point End Pass type
(mag) Time Alt. Az. Time Alt. Az. Time Alt. Az.
04 May - 06:57:14 10° WSW 07:00:23 49° NW 07:03:34 10° NNE daylight
04 May - 13:31:34 10° NNE 13:32:18 11° NNE 13:33:02 10° NE daylight
04 May - 15:05:49 10° NW 15:09:03 65° SW 15:12:16 10° SE daylight
05 May - 06:04:40 10° SW 06:07:54 65° SE 06:11:07 10° NE visible
05 May - 07:43:54 10° NW 07:44:39 11° NNW 07:45:23 10° NNW daylight
05 May - 14:13:22 10° NNW 14:16:33 49° NE 14:19:43 10° ESE daylight
06 May - 05:12:41 10° S 05:15:28 26° SE 05:18:16 10° ENE visible
06 May - 06:49:29 10° W 06:51:54 19° NW 06:54:19 10° N daylight
06 May - 13:21:15 10° NNW 13:23:56 23° NE 13:26:37 10° E daylight
06 May - 14:57:47 10° WNW 15:00:16 20° SW 15:02:45 10° S daylight
07 May - 04:21:50 10° SSE 04:23:06 12° SE 04:24:22 10° ESE visible
07 May - 05:56:11 10° WSW 05:59:15 38° NW 06:02:19 10° NNE visible
07 May - 12:29:39 10° N 12:31:13 13° NE 12:32:45 10° ENE daylight
07 May - 14:04:41 10° NW 14:07:51 48° SW 14:11:00 10° SSE daylight
08 May - 05:03:25 10° SW 05:06:41 88° SE 05:09:56 10° NE visible
08 May - 13:12:05 10° NW 13:15:20 66° NE 13:18:33 10° SE daylight
09 May - 04:11:11 10° SSW 04:14:11 34° SE 04:17:11 10° ENE visible
09 May - 05:48:38 10° WNW 05:50:43 16° NW 05:52:47 10° N visible
09 May - 12:19:49 10° NNW 12:22:43 29° NE 12:25:36 10° ESE daylight
09 May - 13:56:53 10° W 13:58:57 16° SW 14:01:01 10° SSW daylight
10 May - 03:19:46 10° SSE 03:21:45 15° SE 03:23:45 10° E visible
10 May - 04:55:04 10° WSW 04:57:59 30° NW 05:00:54 10° NNE visible
10 May - 11:27:57 10° N 11:29:58 15° NE 11:32:00 10° ENE daylight
10 May - 13:03:30 10° WNW 13:06:31 36° SW 13:09:31 10° SSE daylight
11 May - 04:02:06 10° SW 04:05:21 69° NW 04:08:35 10° NE visible
11 May - 12:10:43 10° NW 12:13:59 88° NE 12:17:13 10° SE daylight
12 May - 03:09:39 10° SSW 03:12:47 46° SE 03:15:56 10° NE visible
12 May - 04:47:46 10° WNW 04:49:24 13° NW 04:51:02 10° N visible
12 May - 11:18:18 10° NNW 11:21:21 36° NE 11:24:24 10° ESE daylight
12 May - 12:56:07 10° W 12:57:30 12° SW 12:58:54 10° SSW daylight
13 May - 02:17:51 10° S 02:20:17 20° SE 02:22:43 10° ENE night (unlit)
13 May - 03:53:53 10° W 03:56:36 24° NW 03:59:20 10° NNE visible
13 May - 10:26:14 10° N 10:28:37 18° NE 10:30:59 10° E daylight
13 May - 12:02:14 10° WNW 12:05:03 27° SW 12:07:52 10° S daylight
